Temperature
16 16 16 16 19 21 21 23 23 22 23 23 22 23 24 25 24 23 20 19 19 18 17 16 15 15 15 14 14 14 14 14 13 13 12 12 12 12 12 12 12 12 12 12 11 11 12 12 12
15 16 16 18 20 21 22 23 22 23 23 21 21 22 23 24 21 20 20 19 18 17 16 15 15 15 14 14 14 14 14 13 13 13 12 12 12 12 12 12 12 12 11 12 11 11 12 12 12
15 16 17 20 20 21 22 22 23 23 21 21 22 22 23 23 20 19 20 19 17 17 16 15 15 15 14 14 14 14 13 13 13 12 12 12 11 11 11 11 11 11 11 11 11 11 11 11 12
15 16 18 20 20 22 23 23 22 22 21 20 22 22 21 19 19 19 20 19 17 16 15 15 15 14 14 14 14 13 13 13 12 12 12 11 11 11 11 11 11 11 11 11 11 11 11 11 11
15 18 19 19 20 22 22 22 21 22 22 22 22 23 22 19 20 20 19 18 17 16 15 14 14 14 14 14 13 13 13 13 12 12 11 11 11 11 11 11 11 11 11 11 11 11 11 11 11
16 18 19 19 20 21 22 21 21 22 22 22 21 23 21 19 19 19 18 17 16 15 14 14 14 14 14 14 13 13 13 13 12 11 11 11 11 11 11 11 11 11 11 10 10 10 10 10 10
17 18 19 20 20 21 22 21 21 22 22 22 22 23 21 18 18 18 17 16 15 15 14 14 14 14 14 13 13 13 13 12 12 11 11 11 11 11 11 11 11 11 10 10 10 10 10 10 10
16 18 18 19 20 20 21 20 21 21 22 21 21 23 22 18 19 17 16 15 15 14 14 14 13 13 13 13 13 13 12 12 11 11 11 11 11 10 10 10 10 10 10 10 10 10 10 10 10
15 17 18 19 19 20 21 21 20 20 21 20 20 21 20 19 19 17 16 15 14 14 14 14 13 13 13 13 12 12 12 11 11 11 11 11 10 10 10 10 10 10 10 10 10 10 10 10 9
15 17 18 20 20 21 20 21 21 20 21 20 19 18 18 19 18 17 16 16 15 15 14 14 13 13 13 12 12 12 11 11 11 10 11 10 10 10 10 10 10 10 10 10 10 10 10 9 9
16 17 18 19 19 19 20 20 20 21 21 22 21 19 18 18 17 17 17 17 16 15 14 14 13 13 13 12 12 12 11 11 11 10 10 10 10 10 10 10 10 10 10 9 9 9 9 9 9
16 17 18 18 18 18 19 19 20 20 21 21 21 19 19 17 17 17 17 17 16 15 15 14 14 13 13 12 12 12 11 11 11 11 10 10 10 10 10 10 9 9 9 9 9 9 9 9 9
16 17 17 17 17 17 18 19 19 20 20 19 19 18 18 18 18 18 17 16 16 16 15 15 14 13 13 13 12 12 12 11 11 11 11 11 11 10 10 10 10 10 9 9 9 9 9 9 9
16 16 17 17 17 17 18 18 19 19 19 18 18 18 18 18 18 17 16 16 16 17 16 15 15 14 13 13 13 12 12 12 11 11 11 11 11 10 10 10 10 10 9 9 9 9 9 9 9
15 16 16 17 17 17 17 18 19 19 19 18 18 18 18 18 18 17 18 17 17 17 16 16 15 14 14 13 13 13 12 12 12 12 11 11 11 10 10 10 10 10 9 9 9 9 9 9 9
14 14 15 17 17 17 17 17 20 19 19 19 19 19 18 17 17 18 17 17 17 16 16 16 15 15 14 14 13 13 13 12 12 11 11 11 11 11 10 10 10 10 10 9 9 9 9 9 9
13 14 15 17 17 17 17 17 20 19 18 19 19 19 18 18 17 17 17 17 17 16 16 16 16 15 15 14 13 13 12 12 12 12 11 11 11 11 10 10 10 10 10 9 9 9 9 9 9
13 15 15 16 17 17 17 17 19 19 18 19 20 20 19 18 18 18 18 17 17 16 16 15 15 15 14 13 12 12 12 12 12 12 12 11 11 11 10 10 10 10 10 9 9 9 9 9 9
15 15 15 16 17 16 17 17 19 19 18 19 20 20 19 19 19 18 17 17 16 16 15 15 15 15 14 13 13 12 13 13 12 12 12 11 11 11 10 10 10 10 9 9 9 9 9 9 9
13 13 14 15 16 16 16 17 18 19 19 19 19 20 20 19 19 18 17 17 17 16 16 16 15 15 15 15 15 14 13 12 12 12 12 11 11 11 10 10 10 10 10 9 9 9 9 9 9
12 13 14 14 14 15 15 16 17 18 18 18 18 19 19 19 19 18 17 17 17 17 17 17 17 16 16 16 14 13 12 11 11 12 12 12 11 11 11 10 10 10 10 9 9 9 9 9 9
11 13 13 13 13 14 14 15 17 18 18 18 18 18 19 19 18 18 18 18 18 18 18 17 17 17 16 15 14 13 13 13 14 14 13 13 12 11 11 11 10 10 10 9 9 9 9 9 9
12 13 13 13 12 13 14 14 17 18 18 18 19 19 19 18 18 18 18 18 18 18 18 18 17 17 16 15 15 14 14 14 13 13 13 12 12 12 11 11 10 10 10 9 9 9 9 9 9
12 11 11 12 11 11 13 14 16 18 18 19 20 19 19 18 18 18 18 18 18 18 18 18 17 16 16 15 15 15 15 14 13 13 13 12 12 12 11 11 10 10 10 10 9 9 9 9 9
10 9 9 9 10 11 14 14 15 18 19 19 20 19 18 18 18 18 18 18 18 18 18 18 17 17 16 15 15 15 15 14 13 13 13 13 12 12 12 11 11 10 10 10 9 9 9 9 9
10 10 10 11 12 13 14 14 17 18 18 18 18 18 18 18 17 17 18 18 18 18 18 18 18 17 16 16 15 15 15 14 13 13 13 13 13 13 13 12 11 10 10 10 9 9 9 9 9
9 10 11 11 12 13 14 15 17 17 17 17 17 17 17 17 17 17 17 18 18 18 18 18 18 17 17 16 15 15 14 13 13 13 12 12 12 12 12 12 11 10 10 10 9 9 9 8 8
10 10 10 10 11 12 14 15 16 16 17 17 17 17 17 17 16 17 17 17 17 17 18 17 17 17 17 16 15 14 14 14 13 12 12 12 12 12 12 11 11 10 10 10 9 9 9 8 8
9 9 9 10 11 12 13 16 17 18 18 18 18 17 17 16 16 16 17 17 17 17 17 17 17 17 16 16 15 14 13 13 13 12 12 12 11 11 11 11 11 10 10 10 9 9 9 8 8
8 8 9 9 9 11 13 16 17 17 18 18 18 17 17 16 16 16 16 16 16 16 17 17 17 16 16 16 15 14 13 13 12 12 12 11 11 11 11 11 10 10 10 10 9 9 9 8 8
Wind_Speed
4 3 4 4 6 8 14 11 9 7 7 7 7 7 8 8 5 1 5 15 18 21 23 25 24 23 21 20 19 18 17 16 15 15 15 14 14 14 14 15 15 15 14 14 14 15 15 15 15
4 4 5 5 8 12 12 11 13 11 5 5 6 7 7 7 1 4 9 15 20 22 23 24 24 23 22 21 19 18 17 16 15 15 14 14 14 14 15 14 14 14 14 14 14 14 14 14 15
5 4 5 6 10 14 9 8 10 8 6 6 7 6 6 4 5 7 11 19 20 21 22 24 24 23 22 22 20 19 18 16 16 15 15 14 14 14 14 14 14 14 14 13 13 13 13 14 14
5 5 6 11 17 16 11 5 4 6 6 7 7 5 4 2 3 8 16 20 21 20 21 24 24 24 23 21 20 19 18 17 16 16 15 15 14 14 14 14 13 13 13 13 12 12 13 13 13
5 6 11 15 19 16 12 10 7 7 7 8 9 6 6 4 5 12 18 20 21 20 20 24 24 23 22 21 20 19 18 17 16 16 15 15 14 14 13 13 13 12 12 12 11 11 12 12 11
7 7 12 18 19 16 14 12 11 12 10 8 8 8 5 6 9 15 18 19 19 19 19 22 23 22 22 21 20 19 18 18 17 16 15 15 14 14 13 12 12 11 11 11 11 10 10 10 10
10 11 17 18 17 16 14 12 14 14 14 12 8 9 6 9 10 16 18 18 18 18 17 19 21 21 22 21 20 19 19 18 17 16 15 15 14 13 13 12 11 10 10 9 9 9 9 9 9
9 8 17 18 18 16 11 10 10 15 14 8 9 9 8 12 14 17 16 16 17 17 17 17 19 20 20 20 20 19 19 18 17 16 15 15 13 13 12 11 10 10 9 9 8 9 9 8 8
8 12 19 19 15 12 9 10 9 6 9 8 7 3 4 17 19 18 16 15 16 17 17 16 17 18 19 18 19 19 18 18 17 16 16 14 12 12 11 10 9 9 8 8 8 8 8 7 8
11 18 24 16 14 11 10 11 9 8 12 11 9 5 10 18 20 21 21 21 21 21 19 17 17 17 18 16 18 17 16 17 15 14 15 12 11 10 9 10 8 8 8 8 8 7 6 3 4
14 21 20 18 15 12 11 11 9 11 13 14 15 14 16 19 20 21 22 23 23 22 20 18 17 17 16 14 15 13 13 14 14 14 14 12 10 9 9 9 8 8 8 7 7 5 4 3 3
18 21 20 18 15 15 15 12 12 15 13 8 10 14 19 22 23 23 23 22 21 21 21 19 18 17 17 15 13 13 12 12 12 14 14 12 9 9 9 7 7 7 6 5 5 3 4 3 3
25 22 19 18 17 17 16 17 16 17 14 8 6 14 19 22 23 22 21 20 21 22 22 21 20 18 16 14 12 12 13 13 13 13 14 13 10 9 9 8 7 7 6 6 4 4 4 3 2
18 21 21 19 18 17 18 19 18 18 14 12 11 15 18 21 22 21 20 21 22 22 23 22 21 20 18 15 13 13 13 13 14 13 14 15 12 10 9 8 7 7 6 5 5 4 3 2 1
18 19 20 21 21 18 15 22 25 21 16 16 15 16 17 20 21 22 23 23 23 23 22 23 22 21 20 18 15 13 13 14 13 13 15 15 13 12 10 8 8 7 7 7 5 4 3 2 1
15 19 22 22 22 19 17 26 22 19 20 21 19 18 17 18 21 22 22 21 21 21 22 22 19 21 21 18 16 13 14 14 13 14 15 16 15 14 11 8 8 9 8 7 5 4 3 2 2
15 21 26 23 21 19 22 24 19 17 19 21 21 20 19 18 20 21 21 21 21 21 22 22 22 22 21 19 15 14 13 13 13 14 14 16 16 16 13 9 9 10 8 7 5 5 4 3 2
21 24 25 26 18 21 25 26 20 16 18 21 22 21 20 20 21 21 21 21 20 20 21 22 22 22 20 16 13 11 12 12 13 14 15 17 16 17 14 10 11 11 8 7 7 6 4 3 2
22 23 24 22 18 19 25 27 25 21 19 21 22 21 21 21 21 19 19 20 20 20 21 22 23 22 19 15 15 15 14 14 13 13 17 18 18 18 15 11 11 11 9 9 8 6 6 4 3
25 25 25 19 15 17 22 26 24 23 23 22 23 23 22 22 20 18 18 19 21 22 23 23 24 23 22 18 17 16 15 13 13 12 15 19 19 18 16 14 11 11 10 10 10 8 5 4 4
27 27 25 18 12 15 16 22 25 24 24 24 23 23 23 22 22 21 20 20 21 23 24 22 25 25 24 22 16 13 11 10 11 13 14 17 20 20 18 17 14 12 12 10 11 10 9 6 5
26 26 23 19 16 13 16 17 23 23 24 24 25 24 24 22 21 20 20 20 22 23 22 24 24 25 25 23 19 20 17 16 18 15 15 17 19 20 19 18 16 14 12 12 11 11 9 7 6
22 18 20 20 18 17 17 16 18 19 23 26 26 25 24 22 21 20 19 20 20 21 20 22 23 24 25 24 24 23 20 18 15 15 17 17 17 18 19 18 16 14 12 13 12 11 10 8 7
15 13 14 15 14 19 25 20 18 20 25 24 24 24 24 22 21 20 18 17 17 17 18 20 22 24 24 25 25 25 24 21 18 19 17 16 14 15 18 18 16 15 13 14 13 12 12 10 9
16 12 10 12 14 17 20 20 19 18 20 22 22 21 20 20 20 19 18 17 17 18 19 20 22 23 24 25 25 25 25 23 22 20 19 17 14 14 18 17 16 15 14 13 12 12 12 12 10
22 22 14 11 15 16 16 19 18 19 18 19 19 18 18 18 18 18 18 17 17 18 19 20 22 23 24 25 25 24 24 18 17 19 17 17 15 16 17 18 17 16 15 13 12 11 11 10 10
16 21 18 11 10 12 13 15 16 15 17 19 19 19 19 19 18 17 16 16 16 17 18 20 21 22 22 24 24 23 22 20 19 18 17 15 14 13 17 17 17 16 15 14 13 10 11 10 10
16 14 10 11 11 14 14 18 15 17 20 20 20 21 20 17 17 16 15 14 14 14 15 18 19 21 21 22 21 18 21 21 19 17 17 16 16 15 16 16 16 15 15 14 13 11 10 11 9
13 14 11 10 9 11 13 13 13 17 18 20 20 19 17 16 15 14 12 12 13 13 14 15 17 18 18 19 20 19 19 19 18 17 17 16 15 15 16 16 16 16 15 14 13 12 12 12 10
11 13 13 12 9 10 11 9 4 11 12 13 15 15 14 14 13 12 11 11 12 13 13 14 15 16 17 17 18 18 17 17 17 16 16 16 15 15 15 15 15 15 14 14 15 14 13 12 12
Wind_Direction
181 194 210 206 214 227 233 223 219 203 203 205 194 198 209 201 198 163 109 155 151 154 157 159 157 155 153 150 145 141 139 135 132 127 123 120 115 111 108 104 100 97 94 92 89 85 83 82 81
190 189 206 215 227 227 230 224 220 216 199 166 189 204 206 207 184 112 142 155 154 154 157 159 156 156 154 151 147 143 139 137 135 132 129 126 121 116 111 107 103 100 97 94 91 88 85 84 82
183 208 216 216 227 229 228 214 223 215 201 194 187 205 211 188 161 150 151 156 155 155 158 156 157 157 155 152 148 145 142 140 138 135 132 130 125 119 115 110 106 103 100 98 95 91 89 87 84
193 201 221 232 232 231 238 210 181 189 195 208 202 188 179 105 140 142 147 157 156 157 158 156 159 158 155 153 151 148 146 144 142 138 135 132 127 122 118 114 110 107 103 100 97 94 92 90 87
214 217 222 231 237 237 237 241 232 217 198 195 204 198 169 125 124 142 153 159 158 158 158 158 161 159 157 155 154 152 150 148 145 141 138 135 130 126 122 119 116 113 109 106 102 98 96 93 88
206 218 228 233 236 237 237 234 233 234 224 211 207 203 168 135 148 152 157 161 160 159 160 160 163 161 160 159 157 156 154 151 148 146 142 138 134 132 129 125 122 119 115 111 106 102 99 95 90
221 220 234 240 243 241 238 229 229 230 226 216 205 197 166 156 153 154 158 160 160 162 163 164 167 165 163 162 161 161 158 154 152 149 145 142 140 139 135 131 128 123 119 115 111 105 101 96 92
231 232 237 237 240 243 235 222 230 230 228 215 203 204 187 158 151 153 156 160 163 167 169 169 171 169 167 166 164 162 160 158 155 151 145 142 143 142 138 138 132 128 125 121 113 106 101 94 90
219 230 233 229 233 238 222 221 223 226 216 199 205 219 118 137 149 153 157 165 170 175 177 175 174 172 171 169 165 165 163 161 157 153 145 151 157 152 150 137 134 132 129 122 114 107 103 105 99
212 229 233 233 234 239 225 225 216 202 206 204 196 159 140 149 160 165 170 175 178 182 182 180 178 174 172 168 168 172 170 167 170 166 163 167 161 157 150 133 136 132 128 123 114 114 124 136 108
217 233 238 238 237 242 239 232 221 220 219 215 206 181 163 166 174 180 182 183 183 182 182 183 181 177 174 172 173 174 174 174 177 173 172 168 163 160 161 158 155 152 153 144 134 148 128 106 85
229 236 238 239 233 234 238 238 231 228 231 225 217 177 170 178 185 189 189 188 184 184 186 185 182 181 181 178 177 177 177 178 178 178 176 173 171 173 172 173 168 167 166 158 163 151 132 118 105
230 237 235 239 238 238 241 240 242 239 239 241 207 176 185 189 194 196 194 189 186 188 187 188 186 185 184 183 181 183 182 181 180 179 183 182 179 180 178 178 175 176 170 172 173 168 149 138 113
232 236 238 236 234 235 239 245 243 242 235 230 211 201 202 201 200 197 195 194 193 192 190 188 190 189 187 187 186 187 186 184 184 183 187 187 186 184 184 182 182 181 180 178 180 172 166 150 138
238 239 238 235 233 232 237 246 239 238 232 230 225 217 213 210 205 202 200 198 196 194 191 190 191 191 190 191 191 189 188 187 188 187 190 191 191 189 188 188 186 184 181 181 181 173 174 156 162
222 229 236 232 226 224 222 242 236 229 228 231 230 225 218 216 212 210 205 203 200 195 192 191 190 193 194 193 192 192 191 190 192 191 192 194 195 193 192 192 191 185 183 186 186 188 185 183 190
216 224 229 230 221 218 220 242 240 227 226 231 230 228 223 220 217 215 210 206 202 198 194 192 192 194 195 194 193 193 192 194 195 194 195 196 197 197 197 197 192 187 189 192 189 195 198 191 182
215 223 229 229 219 217 225 236 235 227 225 230 231 228 225 223 220 216 211 207 204 200 196 195 194 196 194 193 193 192 195 198 199 198 198 197 198 199 200 199 195 190 192 195 194 190 188 186 172
231 230 232 233 224 220 230 236 236 231 229 232 232 229 227 226 224 217 210 206 202 200 198 197 195 195 192 191 193 194 198 199 200 201 201 200 200 199 200 199 196 194 199 200 196 187 182 181 176
229 233 236 238 231 228 238 242 240 236 233 233 234 232 229 229 224 216 210 204 202 201 199 198 198 195 194 195 196 199 198 201 202 200 203 203 203 202 201 201 198 197 200 200 194 190 193 181 193
228 229 231 232 228 230 244 249 241 237 235 236 236 235 233 229 227 219 211 206 203 202 201 199 199 197 197 196 194 192 192 194 198 202 203 205 204 203 202 204 203 200 200 200 197 195 197 194 193
230 228 230 231 227 229 222 247 239 231 229 229 230 230 231 228 228 224 215 208 205 205 202 201 200 199 197 194 194 191 194 199 202 201 202 202 204 204 204 204 205 202 202 203 200 199 202 197 193
231 229 228 229 233 239 229 241 247 225 228 227 226 226 227 226 224 222 217 212 207 204 201 201 200 200 197 196 197 197 202 206 203 200 201 201 202 204 204 203 203 203 203 205 199 195 199 203 202
224 222 229 232 234 238 228 228 247 225 226 226 225 224 224 223 222 223 219 213 209 203 200 200 200 201 198 197 199 201 204 203 199 198 198 199 199 202 203 203 203 203 203 203 199 196 200 203 203
205 200 201 208 217 233 222 225 241 234 226 227 225 223 221 220 219 218 216 212 208 202 199 199 199 201 199 198 201 203 206 205 204 201 199 196 197 199 202 200 202 203 202 199 195 195 199 202 201
208 205 211 210 218 226 217 227 235 231 228 229 231 228 223 219 216 215 213 211 208 203 199 198 200 201 199 199 202 204 205 205 207 205 201 199 200 200 199 198 201 202 199 195 194 194 197 198 201
210 213 224 240 238 231 221 231 239 232 229 226 226 226 223 219 216 215 213 210 207 203 200 198 198 199 199 199 200 203 203 204 205 203 202 202 201 198 196 196 198 199 196 194 191 196 194 194 199
219 209 208 214 216 227 228 228 226 213 218 219 221 222 222 218 217 215 213 209 206 202 198 196 197 198 198 197 199 201 201 203 203 200 200 200 198 195 193 194 196 195 194 192 191 193 192 192 194
205 208 212 211 227 228 231 233 223 219 216 215 215 216 215 212 211 209 206 204 201 195 191 192 194 196 195 196 197 198 200 200 200 200 199 198 197 193 193 192 193 193 192 191 191 192 187 193 192
211 205 204 208 215 227 236 240 193 219 221 220 218 215 214 212 209 205 199 194 192 191 189 189 190 192 193 193 193 195 196 196 197 198 197 194 193 191 191 189 190 191 191 190 192 191 189 192 193
Height
1513 1514 1515 1518 1516 1509 1501 1495 1494 1496 1496 1497 1499 1499 1497 1497 1500 1504 1503 1503 1505 1509 1513 1516 1520 1523 1526 1529 1531 1532 1534 1535 1536 1537 1538 1538 1539 1539 1540 1540 1540 1541 1541 1541 1541 1541 1540 1540 1540
1512 1514 1517 1516 1509 1505 1497 1491 1493 1493 1494 1497 1499 1499 1498 1497 1499 1500 1500 1502 1505 1509 1513 1516 1520 1523 1526 1529 1531 1532 1534 1535 1536 1537 1538 1539 1539 1540 1540 1541 1541 1541 1542 1542 1542 1542 1542 1541 1541
1512 1513 1515 1509 1502 1496 1490 1489 1489 1492 1495 1497 1497 1497 1497 1497 1498 1499 1499 1502 1506 1510 1513 1516 1520 1523 1526 1528 1531 1532 1534 1535 1536 1537 1538 1539 1540 1541 1541 1542 1542 1542 1542 1543 1543 1543 1543 1543 1542
1512 1513 1512 1504 1496 1489 1486 1487 1490 1492 1494 1495 1495 1495 1496 1496 1497 1498 1499 1502 1505 1509 1513 1516 1520 1523 1526 1528 1530 1532 1534 1535 1536 1538 1539 1540 1540 1541 1542 1542 1543 1543 1543 1544 1544 1544 1544 1544 1544
1510 1509 1504 1498 1491 1486 1487 1489 1491 1490 1490 1492 1493 1491 1494 1494 1494 1496 1499 1502 1505 1509 1513 1517 1520 1523 1526 1528 1530 1532 1534 1536 1537 1538 1539 1540 1541 1542 1542 1543 1544 1544 1544 1545 1545 1545 1545 1545 1545
1508 1503 1498 1492 1486 1484 1485 1488 1490 1488 1488 1490 1492 1491 1492 1493 1494 1496 1499 1502 1506 1510 1513 1517 1520 1523 1526 1528 1530 1532 1534 1536 1537 1538 1539 1541 1541 1542 1543 1544 1544 1545 1546 1546 1546 1547 1547 1546 1546
1503 1497 1491 1485 1483 1481 1482 1486 1486 1485 1485 1487 1489 1489 1491 1492 1493 1496 1499 1503 1507 1510 1513 1517 1520 1523 1526 1528 1530 1532 1534 1536 1537 1539 1540 1541 1542 1543 1544 1545 1545 1546 1547 1547 1547 1548 1547 1547 1547
1498 1493 1486 1483 1482 1479 1480 1483 1483 1483 1482 1485 1488 1486 1488 1491 1492 1495 1499 1503 1506 1510 1513 1516 1520 1523 1525 1528 1530 1532 1534 1536 1537 1539 1540 1541 1542 1543 1544 1545 1546 1547 1547 1548 1548 1548 1548 1548 1548
1495 1492 1481 1477 1479 1476 1478 1480 1480 1481 1481 1483 1484 1485 1486 1487 1490 1494 1497 1501 1505 1508 1511 1515 1519 1521 1524 1527 1529 1532 1534 1535 1537 1539 1540 1541 1543 1544 1545 1546 1546 1547 1548 1548 1549 1549 1549 1549 1549
1489 1481 1473 1473 1475 1475 1476 1477 1477 1478 1478 1480 1482 1482 1483 1485 1488 1491 1493 1496 1500 1504 1509 1513 1516 1520 1523 1526 1528 1531 1533 1535 1537 1539 1540 1542 1543 1545 1545 1545 1547 1548 1548 1549 1549 1549 1549 1550 1550
1479 1473 1471 1472 1474 1475 1475 1475 1476 1475 1473 1474 1476 1479 1480 1483 1486 1489 1491 1493 1496 1501 1505 1510 1513 1517 1520 1523 1526 1529 1532 1534 1536 1538 1539 1541 1542 1543 1545 1546 1547 1548 1549 1550 1549 1550 1550 1551 1550
1473 1469 1470 1470 1472 1474 1473 1473 1473 1472 1471 1473 1475 1476 1477 1480 1482 1485 1488 1492 1495 1499 1502 1507 1510 1514 1518 1521 1524 1527 1529 1532 1534 1536 1538 1539 1541 1542 1544 1545 1547 1548 1549 1549 1550 1551 1550 1550 1550
1467 1465 1467 1468 1470 1470 1471 1469 1469 1468 1470 1471 1472 1473 1475 1477 1479 1483 1487 1490 1493 1495 1499 1503 1507 1510 1514 1518 1521 1524 1527 1529 1532 1534 1536 1538 1539 1541 1543 1545 1546 1547 1548 1549 1550 1550 1550 1550 1550
1461 1463 1464 1464 1465 1466 1467 1465 1465 1463 1466 1467 1468 1470 1471 1474 1476 1480 1484 1486 1489 1492 1495 1499 1503 1507 1511 1514 1518 1521 1524 1527 1530 1532 1534 1536 1538 1540 1541 1543 1544 1546 1547 1548 1549 1550 1550 1550 1549
1461 1460 1458 1457 1459 1461 1464 1460 1456 1459 1462 1463 1464 1466 1467 1470 1473 1475 1478 1481 1484 1488 1492 1495 1499 1503 1507 1511 1515 1518 1521 1524 1527 1529 1532 1534 1536 1538 1540 1542 1543 1545 1546 1547 1548 1548 1549 1549 1549
1456 1456 1453 1448 1452 1455 1462 1449 1447 1453 1456 1457 1459 1461 1463 1465 1467 1470 1473 1477 1481 1484 1488 1491 1495 1499 1503 1507 1511 1514 1518 1521 1524 1527 1529 1532 1534 1536 1538 1540 1542 1543 1544 1545 1546 1547 1548 1548 1548
1449 1446 1442 1441 1444 1447 1450 1442 1442 1447 1449 1451 1453 1455 1457 1459 1462 1465 1468 1472 1476 1479 1483 1487 1490 1494 1499 1503 1507 1511 1514 1517 1520 1523 1526 1529 1531 1534 1536 1538 1540 1541 1542 1544 1545 1546 1546 1547 1547
1436 1435 1434 1433 1435 1441 1441 1436 1438 1441 1444 1444 1446 1448 1450 1452 1455 1459 1462 1466 1470 1474 1478 1482 1486 1490 1495 1499 1503 1507 1510 1513 1516 1519 1522 1525 1528 1531 1533 1535 1537 1539 1540 1541 1543 1544 1544 1545 1545
1429 1429 1429 1428 1430 1435 1433 1431 1431 1434 1437 1438 1438 1440 1443 1446 1449 1453 1456 1460 1464 1468 1471 1475 1479 1484 1489 1493 1496 1500 1503 1507 1511 1514 1518 1521 1524 1527 1529 1532 1534 1536 1537 1539 1541 1542 1542 1543 1543
1429 1429 1427 1427 1430 1432 1429 1425 1424 1426 1428 1430 1432 1433 1436 1440 1443 1446 1449 1453 1456 1460 1464 1468 1472 1477 1481 1485 1490 1494 1498 1502 1506 1509 1513 1516 1519 1522 1525 1528 1530 1532 1534 1536 1538 1539 1540 1541 1541
1423 1425 1425 1427 1429 1429 1429 1423 1418 1417 1421 1423 1425 1426 1429 1431 1435 1438 1441 1445 1448 1452 1456 1460 1465 1470 1474 1479 1485 1489 1494 1498 1501 1503 1506 1510 1514 1517 1520 1523 1526 1528 1530 1532 1534 1536 1537 1538 1539
1418 1418 1422 1426 1429 1426 1426 1419 1405 1407 1411 1413 1416 1418 1420 1423 1427 1430 1433 1437 1440 1444 1449 1453 1458 1463 1467 1472 1476 1480 1484 1488 1491 1495 1500 1504 1508 1512 1515 1518 1521 1524 1526 1528 1530 1532 1534 1535 1535
1412 1416 1419 1422 1424 1424 1420 1417 1397 1398 1401 1401 1404 1408 1411 1415 1419 1422 1425 1429 1433 1437 1441 1446 1450 1455 1460 1464 1468 1473 1477 1482 1487 1491 1494 1498 1502 1506 1509 1513 1516 1519 1521 1524 1526 1528 1530 1531 1532
1412 1417 1419 1419 1424 1422 1409 1411 1393 1387 1387 1389 1393 1398 1402 1407 1410 1414 1418 1422 1426 1430 1434 1438 1443 1447 1452 1456 1461 1465 1470 1475 1479 1483 1487 1491 1495 1499 1503 1507 1510 1513 1516 1519 1521 1523 1525 1527 1528
1409 1415 1418 1417 1415 1402 1394 1398 1384 1375 1378 1381 1385 1389 1394 1398 1402 1406 1409 1413 1417 1421 1426 1430 1435 1439 1444 1448 1453 1457 1462 1467 1472 1476 1480 1484 1488 1491 1495 1499 1503 1507 1510 1514 1516 1519 1521 1522 1524
1398 1403 1401 1396 1391 1385 1387 1385 1371 1370 1373 1377 1380 1383 1387 1391 1394 1397 1401 1405 1409 1413 1417 1422 1426 1431 1436 1440 1445 1450 1455 1460 1465 1469 1473 1477 1481 1484 1489 1493 1497 1501 1505 1508 1511 1514 1516 1518 1519
1393 1393 1392 1392 1384 1381 1377 1370 1366 1366 1368 1371 1374 1377 1379 1383 1387 1390 1393 1397 1401 1405 1409 1414 1418 1423 1428 1433 1438 1443 1448 1452 1457 1462 1467 1471 1475 1479 1483 1487 1491 1495 1499 1503 1506 1508 1511 1513 1514
1386 1387 1392 1393 1387 1379 1370 1364 1357 1358 1361 1364 1367 1369 1372 1376 1380 1383 1387 1390 1394 1398 1402 1407 1412 1416 1421 1426 1431 1435 1441 1446 1451 1455 1460 1464 1468 1473 1477 1481 1485 1489 1493 1497 1500 1503 1505 1508 1509
1384 1388 1386 1385 1380 1371 1365 1354 1344 1346 1349 1353 1357 1361 1365 1369 1373 1376 1380 1384 1388 1392 1396 1400 1405 1410 1415 1420 1424 1429 1434 1439 1444 1449 1453 1458 1463 1467 1471 1475 1479 1483 1487 1491 1494 1497 1500 1502 1504
1379 1379 1381 1382 1379 1372 1362 1351 1340 1342 1345 1348 1352 1356 1360 1364 1367 1371 1375 1379 1382 1386 1390 1395 1399 1404 1408 1413 1418 1423 1428 1433 1438 1442 1447 1452 1457 1461 1465 1470 1474 1478 1482 1485 1489 1492 1495 1497 1499